ROMMA est une association bénévole à but non lucratif. Votre soutien est indispensable : ADHERER à ROMMA ou FAIRE un DON

St-Christophe/Guiers - Berland - (38, Isère)

Massif de la Chartreuse (533 m)   Longitude: 05° 46' 44" E   Latitude: 45° 25' 43" N Station partenaire n°32
 

Détail journalier du     <<     >>

Température Precipitation Humidité Pression Vent Dir Rafale Dir. rafale Ensol.
Heure (°C) (mm) (%) (hPa) (km/h) (km/h) (min)
01:00 7.308210184ENE8ENE0
02:00 6.408310182ENE8ENE0
03:00 6.808310184E10ENE0
04:00 6.808610195ENE11E0
05:00 7.408510195E11ENE0
06:00 7.108810191---8ENE0
07:00 6.409010191---6E0
08:00 6.70.49410192E8NE0
09:00 7.60.29110195ENE11ENE0
10:00 7.909410203SO11SO0
11:00 8.50.28810201SO6SO0
12:00 8.808510215SO11SO0
13:00 9.508010214SSO16SSO0
14:00 10.107910204SSO16SO0
15:00 9.208510219SO19SO0
16:00 10.00.28510203SO15SO0
17:00 10.208410203SO11SSO0
18:00 10.408310201---10SSO0
19:00 10.6083102100---0
20:00 10.3086102100---0
21:00 9.2089102100---0
22:00 10.308110216ENE23ENE0
23:00 9.408410213---18ENE0
minuit 8.308810222ESE10OSO0

Graphique du 16-04-2019

 

Serveur OMMA